Location: Unspecified
(0.0000°N, 0.0000°E)
Time: 14:31:16
(UTC+00:00)

Altair - Pass Details

Date: 05 November 2021
Orbit: 1502 x 1682 km, 47.2° (Epoch: 26 November)

Event Time Altitude Azimuth Distance (km) Brightness Sun altitude
Rises 06:08:30 0° 349° (N) 4,779 9.8 6.0°
Reaches altitude 10° 06:13:03 10° 8° (N) 3,830 9.5 7.1°
Maximum altitude 06:19:08 18° 47° (NE) 3,280 9.8 8.5°
Drops below altitude 10° 06:25:17 10° 86° (E) 3,912 11.3 10.0°
Sets 06:29:56 0° 104° (ESE) 4,919 12.4 11.1°
